Date String (YYYY-MM-DD hh:mm:ss) UTC,Instrument flags,absolute air pressure of the measurement (hPa),sample flow rate (lpm),inlet stack bypass flow (lpm),air temperature of the measurement (°C),ambient temperature measured by the external sensor (°C),aerosol sample conditioner tube jacket temperature (°C),OPC LED temperature (°C),internal box temperature (°C),relative humidity of the measurement (%),span deviation,mass concentration of particles derived from Lorenz-Mie calculation of OPC scattering (μg/m³),mass concentration of particles derived from Lorenz-Mie calculation of OPC scattering (μg/m³),mass concentration of particles derived from Lorenz-Mie calculation of OPC scattering (μg/m³)
DateTimeUTC,F1_M11,P_M11,Q1_M11,Q2_M11,T1_M11,T2_M11,T3_M11,T4_M11,T5_M11,U1_M11,ZSPAN_M11,X2_M11,X0_M11,X1_M11
2023-11-13 00:00:00,SystemResetWarning,0837.6,5.00,000.00,028.1,027.2,000.0,036.2,029.6,7.3,0000.0,0003.50,0009.66,0002.77
2023-11-13 00:01:00,SystemResetWarning,0837.6,5.01,000.00,028.1,027.2,000.0,036.2,029.6,7.3,0000.0,0003.49,0009.44,0002.77
2023-11-13 00:02:00,SystemResetWarning,0837.6,5.01,000.00,028.1,027.2,000.0,036.3,029.6,7.3,0000.0,0003.49,0009.77,0002.77
2023-11-13 00:03:00,SystemResetWarning,0837.6,4.99,000.00,028.1,027.2,000.0,036.3,029.6,7.3,0000.0,0003.52,0009.76,0002.77
2023-11-13 00:04:00,SystemResetWarning,0837.7,5.00,000.00,028.1,027.2,000.0,036.3,029.6,7.4,0000.0,0003.51,0009.94,0002.76
2023-11-13 00:05:00,SystemResetWarning,0837.6,5.01,000.00,028.2,027.2,000.0,036.3,029.7,7.2,0000.0,0003.48,0010.66,0002.75
2023-11-13 00:06:00,SystemResetWarning,0837.7,5.01,000.00,028.2,027.2,000.0,036.3,029.7,7.2,0000.0,0003.46,0010.12,0002.73
2023-11-13 00:07:00,SystemResetWarning,0837.6,5.00,000.00,028.2,027.2,000.0,036.4,029.7,7.3,0000.0,0003.48,0009.96,0002.73
2023-11-13 00:08:00,SystemResetWarning,0837.6,4.99,000.00,028.2,027.2,000.0,036.4,029.7,7.4,0000.0,0003.46,0010.07,0002.72
2023-11-13 00:09:00,SystemResetWarning,0837.7,5.00,000.00,028.2,027.2,000.0,036.4,029.7,7.3,0000.0,0003.49,0012.55,0002.72
2023-11-13 00:10:00,SystemResetWarning,0837.6,5.00,000.00,028.2,027.2,000.0,036.4,029.7,7.3,0000.0,0003.49,0013.10,0002.72
2023-11-13 00:11:00,SystemResetWarning,0837.6,4.99,000.00,028.2,027.2,000.0,036.4,029.7,7.3,0000.0,0003.49,0012.31,0002.73
2023-11-13 00:12:00,SystemResetWarning,0837.6,4.99,000.00,028.2,027.2,000.0,036.4,029.7,7.3,0000.0,0003.48,0013.46,0002.73
2023-11-13 00:13:00,SystemResetWarning,0837.7,5.00,000.00,028.2,027.2,000.0,036.5,029.7,7.4,0000.0,0003.48,0013.42,0002.75
2023-11-13 00:14:00,SystemResetWarning,0837.7,5.00,000.00,028.3,027.3,000.0,036.5,029.7,7.4,0000.0,0003.49,0013.46,0002.75
2023-11-13 00:15:00,SystemResetWarning,0837.6,5.00,000.00,028.3,027.3,000.0,036.5,029.7,7.4,0000.0,0003.53,0013.70,0002.78
2023-11-13 00:16:00,SystemResetWarning,0837.6,5.00,000.00,028.3,027.3,000.0,036.5,029.7,7.4,0000.0,0003.55,0012.75,0002.81
2023-11-13 00:17:00,SystemResetWarning,0837.6,5.00,000.00,028.3,027.3,000.0,036.5,029.7,7.4,0000.0,0003.57,0013.02,0002.82
2023-11-13 00:18:00,SystemResetWarning,0837.7,5.00,000.00,028.3,027.3,000.0,036.5,029.7,7.5,0000.0,0003.56,0013.00,0002.82
2023-11-13 00:19:00,SystemResetWarning,0837.7,4.99,000.00,028.3,027.3,000.0,036.5,029.7,7.4,0000.0,0003.61,0013.15,0002.84
2023-11-13 00:20:00,SystemResetWarning,0837.7,5.00,000.00,028.3,027.2,000.0,036.5,029.7,7.4,0000.0,0003.61,0011.13,0002.84
2023-11-13 00:21:00,SystemResetWarning,0837.7,5.00,000.00,028.3,025.6,000.0,036.5,029.6,7.5,0000.0,0003.59,0011.37,0002.84
2023-11-13 00:22:00,SystemResetWarning,0837.7,5.01,000.00,028.1,023.9,000.0,036.4,029.3,7.5,0000.0,0003.59,0012.81,0002.83
2023-11-13 00:23:00,SystemResetWarning,0837.7,5.01,000.00,028.0,023.7,000.0,036.4,028.9,7.6,0000.0,0003.58,0012.15,0002.83
2023-11-13 00:24:00,SystemResetWarning,0837.7,5.02,000.00,027.8,024.1,000.0,036.3,028.6,7.7,0000.0,0003.62,0011.84,0002.82
2023-11-13 00:25:00,SystemResetWarning,0837.7,4.99,000.00,027.7,024.5,000.0,036.3,028.6,7.8,0000.0,0003.59,0011.45,0002.82
2023-11-13 00:26:00,SystemResetWarning,0837.7,4.99,000.00,027.7,025.0,000.0,036.2,028.7,7.8,0000.0,0003.55,0011.40,0002.79
2023-11-13 00:27:00,SystemResetWarning,0837.7,5.01,000.00,027.6,025.3,000.0,036.2,028.8,7.8,0000.0,0003.55,0012.09,0002.77
2023-11-13 00:28:00,SystemResetWarning,0837.7,5.00,000.00,027.6,025.6,000.0,036.1,028.9,7.9,0000.0,0003.57,0011.97,0002.76
2023-11-13 00:29:00,SystemResetWarning,0837.7,4.99,000.00,027.6,025.8,000.0,036.1,028.9,7.9,0000.0,0003.55,0012.08,0002.76
2023-11-13 00:30:00,SystemResetWarning,0837.7,4.99,000.00,027.6,026.0,000.0,036.1,029.0,7.9,0000.0,0003.50,0012.06,0002.74
2023-11-13 00:31:00,SystemResetWarning,0837.7,5.00,000.00,027.6,026.1,000.0,036.1,029.0,7.9,0000.0,0003.51,0012.29,0002.73
2023-11-13 00:32:00,SystemResetWarning,0837.7,5.00,000.00,027.6,026.2,000.0,036.1,029.0,7.9,0000.0,0003.51,0011.50,0002.74
2023-11-13 00:33:00,SystemResetWarning,0837.8,5.00,000.00,027.6,026.3,000.0,036.1,029.1,7.9,0000.0,0003.51,0010.00,0002.75
2023-11-13 00:34:00,SystemResetWarning,0837.8,5.00,000.00,027.6,026.4,000.0,036.0,029.1,7.9,0000.0,0003.49,0009.61,0002.76
2023-11-13 00:35:00,SystemResetWarning,0837.7,5.00,000.00,027.7,026.4,000.0,036.0,029.1,7.9,0000.0,0003.43,0010.30,0002.76
2023-11-13 00:36:00,SystemResetWarning,0837.7,5.00,000.00,027.7,026.5,000.0,036.0,029.1,7.8,0000.0,0003.43,0010.55,0002.78
2023-11-13 00:37:00,SystemResetWarning,0837.8,4.99,000.00,027.7,026.5,000.0,036.0,029.2,7.8,0000.0,0003.44,0010.71,0002.80
2023-11-13 00:38:00,SystemResetWarning,0837.8,5.00,000.00,027.7,026.6,000.0,036.0,029.2,7.8,0000.0,0003.45,0010.01,0002.81
2023-11-13 00:39:00,SystemResetWarning,0837.8,5.00,000.00,027.7,026.6,000.0,036.1,029.2,7.8,0000.0,0003.43,0009.73,0002.82
2023-11-13 00:40:00,SystemResetWarning,0837.8,5.00,000.00,027.7,026.6,000.0,036.1,029.2,7.8,0000.0,0003.47,0010.31,0002.83
2023-11-13 00:41:00,SystemResetWarning,0837.8,5.00,000.00,027.7,026.7,000.0,036.1,029.2,7.8,0000.0,0003.46,0010.17,0002.83
2023-11-13 00:42:00,SystemResetWarning,0837.8,5.00,000.00,027.8,026.7,000.0,036.1,029.2,7.8,0000.0,0003.47,0010.17,0002.86
2023-11-13 00:43:00,SystemResetWarning,0837.9,5.00,000.00,027.8,026.7,000.0,036.1,029.3,7.8,0000.0,0003.51,0009.84,0002.87
2023-11-13 00:44:00,SystemResetWarning,0837.8,5.00,000.00,027.8,026.7,000.0,036.1,029.3,7.8,0000.0,0003.49,0009.70,0002.86
2023-11-13 00:45:00,SystemResetWarning,0837.8,5.00,000.00,027.8,026.7,000.0,036.1,029.3,7.8,0000.0,0003.46,0009.92,0002.84
2023-11-13 00:46:00,SystemResetWarning,0837.8,5.00,000.00,027.8,026.7,000.0,036.1,029.3,7.7,0000.0,0003.47,0009.77,0002.83
2023-11-13 00:47:00,SystemResetWarning,0837.8,5.00,000.00,027.8,026.7,000.0,036.1,029.3,7.7,0000.0,0003.45,0009.68,0002.82
2023-11-13 00:48:00,SystemResetWarning,0837.8,4.99,000.00,027.8,026.8,000.0,036.1,029.3,7.7,0000.0,0003.45,0009.26,0002.83
2023-11-13 00:49:00,SystemResetWarning,0837.8,5.00,000.00,027.8,026.8,000.0,036.1,029.3,7.7,0000.0,0003.42,0009.28,0002.83
2023-11-13 00:50:00,SystemResetWarning,0837.9,5.01,000.00,027.9,026.8,000.0,036.1,029.3,7.7,0000.0,0003.42,0009.27,0002.82
2023-11-13 00:51:00,SystemResetWarning,0838.0,5.01,000.00,027.9,026.8,000.0,036.1,029.3,7.7,0000.0,0003.38,0008.82,0002.81
2023-11-13 00:52:00,SystemResetWarning,0838.0,5.01,000.00,027.9,026.8,000.0,036.2,029.3,7.7,0000.0,0003.39,0008.47,0002.81
2023-11-13 00:53:00,SystemResetWarning,0838.0,5.01,000.00,027.9,026.8,000.0,036.2,029.3,7.7,0000.0,0003.40,0008.55,0002.79
2023-11-13 00:54:00,SystemResetWarning,0838.0,4.99,000.00,027.9,026.8,000.0,036.2,029.3,7.7,0000.0,0003.35,0008.39,0002.75
2023-11-13 00:55:00,SystemResetWarning,0838.0,4.99,000.00,027.9,026.8,000.0,036.2,029.3,7.7,0000.0,0003.37,0008.43,0002.74
2023-11-13 00:56:00,SystemResetWarning,0838.1,4.99,000.00,027.9,026.8,000.0,036.2,029.3,7.7,0000.0,0003.41,0008.43,0002.74
2023-11-13 00:57:00,SystemResetWarning,0838.0,5.01,000.00,027.9,026.8,000.0,036.2,029.4,7.6,0000.0,0003.45,0008.19,0002.74
2023-11-13 00:58:00,SystemResetWarning,0838.1,5.01,000.00,027.9,026.8,000.0,036.2,029.4,7.6,0000.0,0003.48,0007.69,0002.73
2023-11-13 00:59:00,SystemResetWarning,0838.0,5.00,000.00,027.9,026.8,000.0,036.2,029.4,7.5,0000.0,0003.49,0007.30,0002.71
